Location: Hite (historical)
(36.1528°N, 86.6833°W)
Time: 14:51:26
(UTC+00:00)

Daily predictions for brighter satellites

Satellite Brightness Start Highest point End
(mag) Time Altitude Azimuth Time Altitude Azimuth Time Altitude Azimuth
ASTRO E2 4.0 12:01:56 10° WSW 12:05:30 33° SSW 12:09:06 10° SE
Meteor 2-6 Rocket 4.2 12:00:33 10° N 12:05:57 87° W 12:11:24 10° S
Cosmos 158 Rocket 4.1 12:01:33 10° NNW 12:06:18 51° WSW 12:11:07 10° S
Cosmos 1862 3.4 12:03:50 10° SSW 12:07:47 56° W 12:11:48 10° N
Cosmos 2112 Rocket 4.1 12:02:56 10° NNW 12:08:19 80° WSW 12:13:38 10° SSE
Cosmos 2154 Rocket 4.0 12:03:13 10° SSW 12:09:24 75° W 12:15:40 10° N
PAYLOAD B 4.2 12:04:14 10° N 12:09:43 72° WNW 12:15:10 10° SSW
BREEZE-M DEB (TANK) 4.3 12:05:41 10° WSW 12:10:20 67° NNW 12:20:06 10° ENE
Cosmos 1844 Rocket 2.8 12:05:14 10° SW 12:10:46 58° WNW 12:16:21 10° NNE
Cosmos 1844 3.6 12:06:54 10° SSW 12:12:25 71° WNW 12:17:59 10° NNE
NOAA 6 4.1 22:56:24 10° SSE 23:01:33 87° WSW 23:06:44 10° NNW
CSL-04 DEB 4.5 22:57:46 10° NNE 23:01:53 70° ESE 23:06:05 10° S
X-37B 2.9 23:00:20 10° SSE 23:01:54 13° SE 23:03:27 10° ESE
Cosmos 1867 3.7 22:57:14 10° SSW 23:02:34 65° ESE 23:07:58 10° NE
Cosmos 2221 4.3 23:01:07 10° SW 23:05:06 35° W 23:09:05 10° NNW
ADEOS Rocket 4.2 22:57:33 10° N 23:05:07 61° WNW 23:12:39 10° SSW
Cosmos 1606 2.9 23:02:36 10° S 23:06:23 52° E 23:10:11 10° NNE
Cosmos 1933 4.2 23:05:37 10° SSE 23:09:07 29° E 23:12:40 10° NNE
Cosmos 2154 Rocket 4.0 23:02:49 10° N 23:09:11 82° E 23:15:32 10° S
Cosmos 2298 Rocket 4.1 23:03:56 10° NNW 23:09:16 89° WSW 23:14:34 10° SSE
Cosmos 2150 Rocket 4.0 23:04:56 10° NNW 23:10:06 85° ENE 23:15:15 10° SSE
SMAP 3.0 23:07:31 10° SSE 23:12:08 70° ENE 23:16:47 10° N
Cosmos 1818 3.6 23:08:47 10° NNW 23:14:13 66° ENE 23:19:37 10° SE
CRYOSAT 2 4.4 23:09:53 10° N 23:14:48 83° E 23:19:41 10° S
Cosmos 1943 Rocket 3.7 23:14:22 10° NNE 23:17:08 14° NE 23:19:12 11° ENE
Cosmos 2341 Rocket 4.2 23:13:55 10° N 23:20:02 52° E 23:26:10 10° SSE
USA 215 3.4 23:13:58 10° NE 23:20:31 82° NW 23:27:03 10° SW
Cosmos 1125 Rocket 3.4 23:15:58 10° NNW 23:21:11 74° ENE 23:26:22 10° SSE
H-2A R/B 3.6 23:17:56 10° S 23:22:11 50° W 23:26:20 10° NNW
Cosmos 1782 4.2 23:20:21 10° SE 23:23:10 19° E 23:25:18 13° NE
SL-16 R/B 2.3 23:19:00 10° S 23:24:32 59° ESE 23:30:05 10° NNE
Meteor 1-4 Rocket 4.0 23:22:22 10° SE 23:25:00 19° E 23:26:26 15° ENE
ERS-2 2.0 23:29:03 10° NNE 23:32:43 77° ESE 23:36:22 10° S
Cosmos 1689 Rocket 3.1 23:32:45 21° ENE 23:33:47 26° E 23:36:18 10° SSE
BREEZE-M DEB (TANK) 4.1 23:32:50 10° W 23:34:50 17° NW 23:36:12 11° N
Helios 1A Rocket 4.5 23:36:28 16° NE 23:36:28 16° NE 23:38:05 10° NNE
SL-24 R/B 4.2 23:32:55 10° NNE 23:36:36 38° E 23:40:02 10° SSE
Meteor 2-12 Rocket 4.4 23:32:34 10° N 23:38:45 84° E 23:44:51 10° S
SL-8 Rocket 4.1 23:33:32 10° N 23:39:40 56° E 23:45:47 10° SSE
IRS-1C Rocket 4.4 23:35:51 10° SE 23:40:47 42° ENE 23:45:45 10° N
Cosmos 1515 Rocket 4.4 23:38:01 10° SSE 23:41:44 28° E 23:43:50 19° NE
Lacrosse 5 rocket 1.2 23:39:24 10° SW 23:43:04 67° NW 23:45:32 19° NNE
CZ-2D R/B 3.9 23:39:49 10° SE 23:43:12 32° ENE 23:46:37 10° N
Cosmos 2181 Rocket 4.0 23:37:22 10° S 23:43:47 75° E 23:50:11 10° N
COSMO-SKYMED 1 2.5 23:41:12 10° NNE 23:45:32 69° ESE 23:49:51 10° S
Okean-O 3.4 23:44:05 10° SE 23:47:51 28° ENE 23:51:37 10° NNE
Sich 1 3.4 23:45:36 10° NNW 23:49:57 66° W 23:54:14 10° S
USA 267 4.1 23:47:07 20° ENE 23:50:15 30° NNE 23:55:43 10° NNW
